This demonstration page uses our WeatherBlox Daily Observations layout. Learn more.

Left ArrowRight Arrow

38.88101, -77.10428

Hourly Observations for August 27, 2021

Temp ( °F °C ) Dew Point ( °F °C ) Humidity (%) Winds ( mph kmh ) Pressure ( in mb ) Visibility ( mi km ) Precip ( " mm )
12:52 am 00:52 Mostly Cloudy 79 26.1 73 22.8 82 82 Calm 30.10 1019 10 16 0.00 0.00
1:52 am 01:52 Mostly Cloudy 78 25.6 73 22.8 85 85 Calm 30.10 1019 10 16 0.00 0.00
2:52 am 02:52 Mostly Cloudy 78 25.6 72 22.2 82 82 N 3 6 30.09 1019 10 16 0.00 0.00
3:52 am 03:52 Mostly Cloudy 77 25 72 22.2 85 85 Calm 30.09 1019 10 16 0.00 0.00
4:52 am 04:52 Mostly Cloudy 77 25 71 21.7 82 82 Calm 30.08 1019 10 16 0.00 0.00
5:52 am 05:52 Mostly Clear 76 24.4 71 21.7 85 85 WSW 3 6 30.08 1019 7 11 0.00 0.00
6:52 am 06:52 Mostly Sunny 77 25 72 22.2 85 85 WSW 3 6 30.09 1019 7 11 0.00 0.00
7:52 am 07:52 Mostly Sunny 79 26.1 74 23.3 85 85 Calm 30.09 1019 8 13 0.00 0.00
8:52 am 08:52 Sunny 80 26.7 75 23.9 85 85 S 5 7 30.09 1019 7 11 0.00 0.00
9:52 am 09:52 Sunny 83 28.3 75 23.9 77 77 SSE 5 7 30.10 1019 8 13 0.00 0.00
10:52 am 10:52 Sunny 85 29.4 76 24.4 75 75 SSE 5 7 30.11 1020 10 16 0.00 0.00
11:52 am 11:52 Mostly Sunny 87 30.6 75 23.9 67 67 SE 5 7 30.10 1019 10 16 0.00 0.00
12:52 pm 12:52 Mostly Sunny 90 32.2 75 23.9 62 62 S 8 13 30.09 1019 10 16 0.00 0.00
1:52 pm 13:52 Mostly Sunny 91 32.8 74 23.3 57 57 S 9 15 30.08 1019 10 16 0.00 0.00
2:52 pm 14:52 Mostly Cloudy 91 32.8 74 23.3 57 57 S 14 22 30.05 1018 10 16 0.00 0.00
3:34 pm 15:34 Sunny with Nearby Thunderstorms 91 32.8 73 22.8 56 56 S 8 13 30.05 1017 10 16 0.00 0.00
3:46 pm 15:46 Mostly Cloudy with Thunderstorms 91 33 72 22 52 52 undefined N/A 30.06 1018 10 16 0.00 0.00
3:52 pm 15:52 Mostly Cloudy with Thunderstorms 84 28.9 71 21.7 65 65 S 8 13 30.06 1018 10 16 0.00 0.00
3:55 pm 15:55 Mostly Cloudy with Thunderstorms 83 28.3 71 21.7 67 67 NNW 13 20 30.06 1018 10 16 0.00 0.00
4:41 pm 16:41 Cloudy with Thunderstorms 78 25.6 73 22.8 85 85 NNW 26 43 30.06 1018 3 5 0.02 0.51
4:43 pm 16:43 Cloudy with Thunderstorms 78 25.6 73 22.8 85 85 NW 22 35 30.05 1018 3 4 0.02 0.51
4:48 pm 16:48 Cloudy with Strong Thunderstorms 77 25 73 23 89 89 NNW 12 19 30.05 1018 1 2 0.05 1.27
4:52 pm 16:52 Cloudy with Strong Thunderstorms 77 25 73 22.8 88 88 N 8 13 30.05 1018 1 1 0.15 3.81
4:58 pm 16:58 Cloudy with Thunderstorms 77 25 73 22.8 88 88 NNE 6 9 30.05 1018 1 2 0.06 1.52
5:06 pm 17:06 Cloudy with Thunderstorms 77 25 73 22.8 88 88 NW 5 7 30.06 1018 4 6 0.08 2.03
5:34 pm 17:34 Cloudy with Thunderstorms 78 25.6 74 23.3 87 87 SSW 9 15 30.06 1018 10 16 0.11 2.79
5:47 pm 17:47 Cloudy with Nearby Thunderstorms 79 26 73 23 84 84 S 12 19 30.06 1018 10 16 0.11 2.79
5:52 pm 17:52 Cloudy with Nearby Thunderstorms 79 26.1 73 22.8 82 82 S 12 19 30.05 1018 10 16 0.11 2.79
6:32 pm 18:32 Mostly Cloudy 80 26.7 73 22.8 79 79 S 10 17 30.07 1018 10 16 0.00 0.00
6:52 pm 18:52 Mostly Cloudy 79 26.1 71 21.7 77 77 SSE 7 11 30.07 1018 10 16 0.00 0.00
7:52 pm 19:52 Mostly Cloudy 79 26.1 72 22.2 79 79 Calm 30.07 1018 10 16 0.00 0.00
8:52 pm 20:52 Mostly Cloudy 79 26.1 72 22.2 79 79 N 5 7 30.10 1019 10 16 0.00 0.00
9:01 pm 21:01 Mostly Cloudy with Nearby Thunderstorms 79 26.1 73 22.8 82 82 N 6 9 30.10 1019 10 16 0.00 0.00
9:39 pm 21:39 Mostly Cloudy 79 26.1 72 22.2 79 79 ESE 3 6 30.11 1020 10 16 0.00 0.00
9:52 pm 21:52 Mostly Cloudy 79 26.1 72 22.2 79 79 E 6 9 30.10 1019 10 16 0.00 0.00
10:08 pm 22:08 Mostly Cloudy with Nearby Thunderstorms 78 25.6 72 22.2 82 82 ENE 5 7 30.11 1020 10 16 0.00 0.00
10:24 pm 22:24 Mostly Cloudy 78 25.6 72 22.2 82 82 Calm 30.12 1020 10 16 0.00 0.00
10:35 pm 22:35 Mostly Cloudy with Nearby Thunderstorms 78 25.6 72 22.2 82 82 S 6 9 30.14 1021 10 16 0.00 0.00
10:37 pm 22:37 Mostly Cloudy with Nearby Thunderstorms 79 26.1 71 21.7 77 77 S 3 6 30.13 1020 10 16 0.00 0.00
10:52 pm 22:52 Cloudy 78 25.6 72 22.2 82 82 SSE 8 13 30.14 1021 10 16 0.00 0.00
11:52 pm 23:52 Cloudy 77 25 71 21.7 82 82 Calm 30.13 1020 10 16 0.00 0.00

Powered by AerisWeather